Location: B?jaj?g
(11.7167°N, 92.6667°E)
Time: 12:41:45
(UTC+00:00)

SL-16 DEB - Visible Passes

Search period start: 20 September 2021 00:00
Search period end: 30 September 2021 00:00
Orbit: 821 x 963 km, 70.8° (Epoch: 19 September)

Date Brightness Start Highest point End Pass type
(mag) Time Alt. Az. Time Alt. Az. Time Alt. Az.
20 Sep ? 21:38:48 10° N 21:45:01 66° ENE 21:51:05 10° SSE visible
21 Sep ? 21:42:52 42° NNW 21:45:09 87° ENE 21:51:17 10° SSE visible
22 Sep ? 21:46:59 49° S 21:46:59 49° S 21:51:22 10° S visible
23 Sep ? 21:49:39 19° S 21:49:39 19° S 21:51:19 10° S visible
